User: anonymous   Login
Location: Radomski Observatory
(40.2854°N, 79.5145°W)
Time: 12:44:36
(UTC-04:00)
Language:

Uosat F - Orbit

View from above orbital plane
View from above orbital plane
View from above satellite
View from above satellite

Ground track
Ground track

The orbit data is extracted from the following two-line orbital elements,

1 21575U 91050B   17202.03976290 +.00000018 +00000-0 +20174-4 0  9990
2 21575 098.7560 219.2518 0007007 190.6981 169.4059 14.40804634365959
Epoch (UTC): 21 July 2017 00:57:15
Eccentricity: 0.0007007
inclination: 98.7560°
perigee height: 751 km
apogee height: 761 km
right ascension of ascending node: 219.2518°
argument of perigee: 190.6981°
revolutions per day: 14.40804634
mean anomaly at epoch: 169.4059°
orbit number at epoch: 36595

The dashed part of the orbit path shows where the satellite is in the earth's shadow,  

DLR